Boynton Beach, FL (33435)

7:55 AM EDT on October 02, 2014 (GMT -0400)
Forest Park | Change Station
CLOSE
Current Station
Personal Weather Station
Location: Boynton Beach, FL
Elevation: 15 ft
Nearby Weather Stations

Elev 15 ft 26.52 °N, 80.07 °W | Updated 6 seconds ago

Partly Cloudy
Partly Cloudy
77.9 °F
Feels Like 80 °F
N
0.0
Wind Variable Wind from West
Gusts 0.0 mph

Today
High -- | Low -- °F
--% Chance of Precip.
Yesterday
High -- | Low -- °F
Precip. -- in
7:13 AM 7:05 PM
First Quarter, 58% visible
Pressure 29.99 in
Visibility 10.0 miles
Clouds Mostly Cloudy 400 ft
Heat Index 80 °F
Dew Point 74 °F
Humidity 88%
Rainfall 0.00 in
Snow Depth Not available.
UV 0 out of 12
Pollen 4.30 out of 12
PM2.5 Good
Flu Activity Not available.
SPECI KPBI 021136Z 22005KT 10SM BKN004 25/24 A2999 RMK AO2 T02500244 $

More Conditions Fewer Conditions

Pressure 29.99 in
Visibility 10.0 miles
Clouds Mostly Cloudy 400 ft
Heat Index 80 °F
Dew Point 74 °F
Humidity 88%
Rainfall 0.00 in
Snow Depth Not available.
UV 0 out of 12
Pollen 4.30 out of 12
PM2.5 Good
Flu Activity Not available.
SPECI KPBI 021136Z 22005KT 10SM BKN004 25/24 A2999 RMK AO2 T02500244 $

More Conditions Fewer Conditions

10-Day Weather Forecast

Almanac

Astronomy

Oct. 02, 2014 Rise Set
Actual Time 7:13 AM EDT 7:05 PM EDT
Civil Twilight 6:50 AM EDT 7:28 PM EDT
Nautical Twilight 6:23 AM EDT 7:55 PM EDT
Astronomical Twilight 5:56 AM EDT 8:22 PM EDT
Moon 2:41 PM EDT 12:59 AM EDT
Length of Visible Light 12h 38m
Length of Day
11h 52m
Tomorrow will be 1m 33s shorter.
First Quarter, 58% of the Moon is Illuminated
Today
First Quarter
Oct 8
Full
Oct 15
Last Quarter
Oct 23
New
Oct 30
First Quarter

Today's Extremes

State Highs State Lows

Community

WunderPhotos

Upload Photos

1,758,221 photos uploaded!

WunderBlogs® & News

Nearby

Air Quality

  Air Quality AQ Index Pollutant
Yesterday Good
PM2.5
Yesterday Good
OZONE
Current Good
PM2.5
Thursday Good
OZONE
Thursday Good
PM2.5
Friday Good
OZONE
Friday Good
PM2.5

Snow Depth

Station Depth Elevation
No new snow has been reported.

Earthquake Activity

City Distance Mag. Time & Date
No recent earthquake activity has been reported nearby.
Minimum magnitude displayed is 2.5.

Coastal Water Temperatures

Place Temperature
Lake Worth, FL 84.9 °F
Virginia Key, FL 84.9 °F

Nearby Weather Stations